Location: Newark
(45.0667°N, 8.1000°E)
Time: 20:17:51
(UTC+00:00)

Tiangong 2 - Visible Passes

Search period start: 16 July 2019 00:00
Search period end: 26 July 2019 00:00
Orbit: 378 x 386 km, 42.8° (Epoch: 16 July)

Date Brightness Start Highest point End Pass type
(mag) Time Alt. Az. Time Alt. Az. Time Alt. Az.
16 Jul 1.3 20:38:11 10° W 20:41:13 48° S 20:42:39 26° SE visible
17 Jul 2.3 21:14:37 10° W 21:16:58 27° SW 21:16:58 27° SW visible
18 Jul 1.7 20:14:11 10° W 20:17:08 38° SSW 20:19:09 17° SE visible
19 Jul 2.8 20:50:50 10° WSW 20:53:10 19° SSW 20:53:28 19° SSW visible
20 Jul 2.3 19:50:14 10° W 19:52:59 28° SSW 19:55:40 10° SE visible
21 Jul 3.4 20:27:24 10° WSW 20:28:55 13° SSW 20:30:03 11° S visible
